Location: Bratsk-Energetik
(56.3300°N, 101.7600°E)
Time: 08:47:29
(UTC+08:00)

ISS - Visible Passes

Search period start: 28 February 2017 00:00
Search period end: 10 March 2017 00:00
Orbit: 399 x 408 km, 51.6° (Epoch: 28 February)

Date Brightness Start Highest point End Pass type
(mag) Time Alt. Az. Time Alt. Az. Time Alt. Az.
04 Mar -0.5 07:21:09 10° S 07:23:07 15° SSE 07:25:03 10° ESE visible
05 Mar -0.3 06:30:12 10° SSE 06:30:47 10° SE 06:31:22 10° SE visible
06 Mar -1.1 07:11:25 10° SSW 07:14:00 21° SSE 07:16:36 10° ESE visible
07 Mar -0.8 06:19:27 10° SSW 06:21:36 16° SSE 06:23:45 10° ESE visible
08 Mar -0.6 05:28:25 11° SSE 05:29:13 12° SE 05:30:27 10° ESE visible
08 Mar -1.7 07:02:02 10° SW 07:04:56 28° SSE 07:07:50 10° ESE visible
09 Mar -1.5 06:10:30 14° SSW 06:12:26 23° SSE 06:15:08 10° ESE visible
